Theta_e
294 293 292 291 291 290 290 290 290 290 290 290 290 289 289 289 290 290 290 290 290 290 290 290 290 290 290 290 290 290 290 290 290 291 291 291 291 290 290 290 290 290 290 290 291 291 291 291 291 292 292 293 293 293 293 293 294 295 295 297 298 300 301 302 304 305 307 309 309 310 311 312 313 316 318 319 321 323 324 326 327 328 329 330 329 329
293 292 291 291 290 290 290 290 290 290 290 290 289 289 289 289 290 290 290 290 290 290 290 290 290 290 290 290 290 290 290 290 290 290 291 291 290 290 290 290 290 290 290 290 291 291 291 291 291 292 292 293 292 292 292 292 293 294 294 294 296 297 299 300 302 304 305 307 308 309 309 310 312 313 315 317 319 321 323 325 327 328 328 329 329 330
293 292 291 290 290 290 290 290 290 290 290 289 289 289 289 289 289 289 290 290 290 290 290 290 290 290 290 290 290 290 290 290 290 290 290 290 290 290 290 290 290 290 290 290 291 291 291 292 292 292 293 293 292 292 291 292 292 292 293 293 294 296 298 299 301 303 304 306 307 308 308 309 310 311 312 314 316 318 320 322 324 326 327 328 328 329
292 291 291 290 290 290 290 290 290 290 289 289 289 289 289 289 289 289 289 290 290 290 290 290 289 289 289 289 290 290 290 290 290 290 290 290 290 290 290 290 290 290 290 290 290 291 291 292 292 293 294 294 293 292 291 291 291 292 292 292 294 296 298 299 301 303 304 306 307 307 308 308 309 309 311 312 313 314 316 318 320 322 324 326 327 328
292 291 290 289 289 289 289 289 289 289 289 289 289 289 289 289 289 289 289 290 290 290 290 289 289 289 289 289 289 290 290 290 290 290 290 289 289 289 289 290 290 290 290 290 290 291 291 292 293 293 294 294 293 292 291 291 291 291 291 292 293 295 298 300 302 304 306 307 307 308 308 308 308 308 309 310 311 312 313 315 316 319 321 323 325 326
290 290 289 289 289 289 289 289 289 289 289 289 289 289 289 289 289 289 289 290 290 290 289 289 289 289 289 289 289 290 290 290 290 289 289 289 289 289 289 289 289 290 290 290 290 290 291 292 292 293 294 294 293 292 291 291 291 290 290 291 293 295 299 301 304 306 307 308 308 308 309 309 308 308 308 308 309 310 312 313 314 316 318 320 323 325
289 289 289 289 289 289 289 289 289 289 289 289 289 289 289 289 289 289 289 289 289 289 289 289 289 289 289 289 289 289 290 290 290 289 289 289 289 289 289 289 289 289 289 290 290 290 291 291 292 293 293 293 293 292 292 291 290 290 290 291 293 295 299 302 304 306 307 308 308 308 308 308 308 307 307 307 307 308 310 311 312 313 315 317 320 322
289 289 289 289 289 289 289 289 289 289 289 289 289 289 289 289 289 289 289 289 289 289 289 289 289 289 289 289 289 289 289 289 289 289 289 289 289 289 289 289 289 289 289 289 290 290 290 291 291 292 292 292 292 292 292 291 290 290 290 291 293 296 299 302 304 306 307 307 307 307 307 307 306 305 305 305 305 306 307 309 310 311 313 314 316 319
289 289 289 289 289 289 289 289 289 289 289 289 289 289 289 289 289 289 289 289 289 289 289 289 289 289 289 289 289 289 289 289 289 289 289 289 289 288 289 289 289 289 289 289 289 290 290 290 291 291 291 291 291 292 292 291 291 290 290 292 294 296 299 302 303 305 305 305 305 305 305 304 303 303 303 303 303 304 305 306 308 309 311 312 314 316
289 289 289 289 289 289 289 289 289 289 289 289 289 289 289 289 289 289 289 289 289 289 289 289 289 289 289 289 289 289 289 289 289 289 289 289 288 288 288 289 289 289 289 289 289 289 290 290 290 290 291 291 291 291 292 291 291 290 290 292 294 296 299 301 303 303 303 303 303 303 302 301 301 300 300 301 301 302 303 304 306 307 309 310 312 314
290 290 290 290 290 290 289 289 289 289 289 289 289 289 289 289 290 290 290 289 290 290 290 290 289 289 289 289 289 289 289 289 289 289 289 289 289 289 288 289 289 289 289 289 289 289 289 289 290 290 290 290 290 291 292 291 291 290 290 292 294 296 298 300 301 302 302 301 301 300 299 298 297 297 297 297 299 300 301 303 304 305 307 308 310 311
290 290 290 290 290 290 290 289 289 289 289 289 289 289 289 290 290 290 290 290 290 290 290 290 290 290 289 289 289 289 289 289 289 289 289 289 289 289 289 289 289 288 288 288 289 289 289 289 289 289 290 290 290 291 291 291 291 290 291 292 294 296 298 299 299 300 300 299 298 297 295 294 294 293 294 295 296 297 299 301 302 304 305 307 308 309
291 290 290 290 290 290 290 290 290 289 289 290 289 290 290 290 290 290 290 290 290 290 290 290 290 290 290 290 290 290 290 290 290 289 289 289 289 289 289 289 289 289 289 289 289 289 289 289 289 289 289 289 290 290 291 291 290 290 291 292 294 295 297 298 298 297 297 295 294 293 291 291 290 291 291 292 294 295 297 299 301 303 304 306 307 308
291 291 291 290 290 290 290 290 290 290 290 290 290 290 290 290 290 290 290 290 290 290 290 290 290 290 290 289 290 289 290 290 290 290 290 290 289 289 289 289 289 289 289 289 289 289 289 289 289 289 289 289 289 290 290 290 290 290 291 293 294 295 296 297 297 296 294 293 291 290 289 289 289 289 289 291 292 294 296 298 300 302 303 305 306 307
292 291 291 291 290 290 290 290 290 290 290 290 290 290 290 290 290 290 290 291 291 290 290 290 290 290 290 290 290 290 290 290 290 290 290 290 290 290 290 289 289 289 289 289 289 289 289 289 289 289 289 289 289 289 290 290 290 290 291 293 294 295 296 296 296 295 293 291 290 289 288 288 288 288 289 290 291 293 295 297 299 301 303 304 305 306
292 291 291 291 291 291 290 290 290 290 290 290 290 290 290 291 291 291 291 291 291 291 291 290 290 290 290 290 290 290 290 290 290 290 290 290 290 290 290 290 289 289 289 289 289 289 289 289 289 289 289 289 289 289 289 289 289 290 291 293 294 294 295 295 295 294 292 290 289 289 288 288 288 288 288 289 290 292 294 296 298 300 302 303 305 306
292 292 291 291 291 291 291 291 291 291 291 291 291 291 291 291 291 291 291 291 291 291 291 291 290 290 290 290 290 290 290 291 291 291 291 290 290 290 290 290 290 290 289 289 289 289 289 289 289 289 289 289 289 289 289 289 289 290 291 292 293 294 294 294 293 292 290 289 289 288 288 288 288 288 288 289 289 291 292 294 297 299 301 303 304 305
292 292 292 291 291 291 291 291 291 290 290 291 291 291 291 291 291 291 291 291 291 291 291 291 291 291 290 290 290 290 291 291 291 291 291 291 290 290 290 290 290 290 289 289 289 289 289 289 289 289 289 289 289 289 289 289 289 289 290 292 292 293 293 292 291 290 289 288 288 288 288 288 288 288 288 288 288 289 291 293 295 297 300 302 303 304
291 291 291 291 291 291 290 290 290 290 290 290 291 291 291 291 291 291 291 291 291 291 291 291 291 291 291 291 291 291 291 291 291 291 291 291 291 290 290 290 290 290 289 289 289 289 289 289 289 289 289 289 289 289 289 289 289 289 290 291 292 292 291 291 290 289 289 288 288 288 288 288 288 288 288 288 288 288 289 290 293 295 298 300 302 303
290 290 290 290 290 290 290 290 290 290 290 290 291 291 291 291 291 291 291 291 291 291 291 291 291 291 291 291 291 291 291 292 292 292 291 291 290 290 290 290 290 290 290 289 289 289 289 290 290 290 289 289 289 289 289 289 289 289 289 290 290 290 290 290 289 289 290 289 289 289 288 288 288 288 288 288 288 288 288 289 290 292 295 298 300 301
289 289 289 289 289 289 289 289 289 290 290 290 291 291 291 291 291 291 291 291 291 291 291 291 291 291 291 291 291 291 292 292 292 292 291 291 290 290 290 290 290 290 290 289 289 290 290 290 290 290 290 289 289 289 289 289 289 289 289 289 289 289 289 289 289 290 290 290 290 289 289 288 288 288 288 288 288 288 288 288 289 290 292 294 297 299
288 288 288 288 288 289 289 289 289 289 289 290 291 291 291 291 291 291 291 291 291 291 291 291 291 291 291 291 291 291 292 292 292 291 291 290 290 290 290 290 290 290 290 290 290 290 290 290 290 290 289 289 290 290 289 290 289 289 289 289 289 289 289 289 289 289 290 290 290 290 290 289 288 288 288 288 288 288 288 288 288 288 289 291 293 295
287 287 287 287 287 287 288 288 288 288 289 289 290 291 291 291 291 291 291 291 291 291 291 291 291 291 291 291 291 291 291 291 291 291 291 290 290 290 290 290 290 290 290 290 290 290 290 290 290 290 290 290 290 290 290 290 290 290 290 289 289 289 289 289 289 289 290 290 290 290 290 289 289 288 287 287 288 288 288 288 288 288 289 290 291 292
286 286 286 286 286 286 286 287 287 288 289 289 290 290 290 290 290 290 290 290 290 290 290 290 289 289 289 289 289 289 289 290 290 290 290 290 290 290 290 290 290 290 290 290 290 290 290 290 290 290 290 290 290 290 290 290 290 290 290 290 289 289 289 289 289 289 289 290 290 290 290 290 289 288 287 287 287 288 288 288 288 288 289 289 290 291
286 286 286 286 286 286 287 287 288 288 289 289 289 289 289 289 289 289 289 289 289 289 288 288 288 288 288 288 288 288 288 289 289 290 290 290 290 290 290 290 290 290 290 290 290 290 290 290 290 290 290 290 290 290 290 290 290 290 290 290 290 289 289 289 289 289 290 290 290 290 290 290 289 289 288 287 287 287 287 288 288 289 289 289 290 290
287 287 287 287 287 287 288 288 288 288 288 288 288 289 289 289 289 289 289 289 288 288 288 288 288 287 287 287 287 288 288 289 289 289 290 290 290 290 290 290 291 291 290 290 290 290 290 290 290 290 290 290 290 290 290 290 290 290 290 290 290 290 290 289 289 290 290 290 290 290 290 290 289 289 288 288 287 287 287 288 288 289 289 290 290 290
287 287 287 287 287 287 287 287 287 287 287 288 288 288 289 289 289 289 289 289 288 288 288 288 288 287 287 287 287 288 288 288 288 289 289 289 290 290 290 290 291 290 290 290 290 290 290 290 290 290 290 290 290 290 290 290 290 290 290 290 290 290 290 290 290 290 290 290 290 290 290 290 289 289 288 288 287 287 287 287 288 289 290 290 291 292
287 287 287 287 287 287 287 287 287 287 287 287 288 288 289 289 289 289 289 288 288 288 288 288 287 287 287 287 287 287 288 288 288 288 289 289 289 290 290 290 290 290 290 290 290 290 290 290 290 290 290 290 290 290 290 290 290 290 290 290 290 290 290 290 290 290 290 290 290 290 290 289 289 289 288 288 288 287 287 287 288 289 290 291 292 293
288 287 287 287 287 287 287 287 287 287 287 287 288 288 288 289 289 289 288 288 288 288 288 287 287 287 287 287 287 287 287 287 288 288 288 289 289 289 289 289 290 290 290 290 290 290 290 290 290 290 290 290 290 290 290 290 290 290 290 290 290 290 290 290 290 290 290 290 290 290 290 289 289 289 289 288 288 287 287 287 288 289 290 291 292 293
288 288 288 287 287 287 287 287 287 287 287 287 287 288 288 288 288 288 288 288 288 287 287 287 287 287 287 287 287 287 287 287 288 288 288 289 289 289 289 289 290 290 291 290 290 290 289 289 289 289 289 289 289 289 290 290 290 290 290 290 290 290 290 290 290 290 290 290 290 290 289 289 289 289 289 288 288 287 287 287 288 289 290 291 291 292
288 288 288 288 288 287 287 288 287 287 287 287 287 287 287 287 287 287 287 287 287 287 287 287 287 287 287 287 287 287 287 287 287 288 288 288 289 289 289 290 290 290 290 290 290 289 289 289 288 288 289 289 289 289 289 289 289 289 289 290 290 290 290 290 290 290 290 290 290 289 289 289 288 288 289 288 288 288 287 287 288 289 290 290 291 292
288 288 288 288 288 288 288 288 288 287 287 287 287 287 287 287 287 287 287 287 287 287 287 287 287 287 287 287 287 287 287 287 287 287 288 288 289 289 289 289 289 289 289 289 289 289 289 288 288 288 288 288 288 288 288 289 289 289 289 289 289 290 290 290 290 290 290 290 289 289 288 288 288 288 289 288 288 288 287 287 288 288 290 290 291 291
288 288 288 288 288 288 288 288 287 287 287 287 287 287 287 287 287 287 287 287 287 287 287 287 287 287 287 287 287 287 287 287 287 287 288 288 288 289 289 288 288 288 288 288 288 288 288 288 288 287 287 287 287 288 288 288 288 288 289 289 290 290 290 290 290 290 289 289 288 288 288 288 288 289 289 288 288 288 287 287 288 288 289 290 291 291
288 288 288 288 288 288 288 287 287 287 287 287 287 287 287 287 286 286 286 287 287 287 287 287 287 287 287 287 287 287 287 287 287 287 287 288 288 288 288 288 288 287 287 287 287 287 287 287 287 287 287 287 287 287 287 287 288 288 289 289 290 291 291 291 290 289 289 288 288 288 288 288 289 289 289 288 288 287 287 287 288 288 289 290 290 291
288 288 288 287 287 287 287 287 287 287 287 286 286 286 286 286 286 286 286 286 286 286 286 286 286 286 286 286 286 286 286 287 287 287 287 287 288 287 287 287 287 287 287 287 287 287 287 287 286 286 286 286 286 286 287 287 288 288 289 290 291 291 291 290 289 288 288 288 288 288 289 289 289 289 288 288 288 287 287 287 288 288 288 289 290 290
287 287 287 287 287 287 287 286 286 286 286 286 286 286 286 286 286 286 286 286 286 286 286 286 286 286 286 286 286 286 286 286 287 287 287 287 287 287 286 286 286 286 286 286 286 286 286 286 286 286 286 286 286 286 287 287 288 288 289 290 290 289 289 288 288 287 287 288 288 289 289 289 289 288 288 288 287 287 287 287 288 288 288 289 289 290
287 287 286 286 286 286 286 286 286 286 286 285 285 285 286 286 286 286 286 286 286 286 286 286 286 286 287 287 287 287 287 287 287 287 287 287 286 286 286 286 286 286 286 286 286 285 285 285 285 285 285 286 286 286 287 287 287 288 288 288 288 288 287 287 287 288 288 289 289 289 289 289 288 288 288 287 287 287 287 288 288 288 288 288 289 289
286 286 286 286 286 286 286 286 285 285 285 285 285 286 286 286 286 286 286 286 286 286 286 286 286 287 287 287 287 287 288 288 288 288 287 286 286 285 285 285 285 285 285 285 285 285 285 285 285 286 286 286 286 286 287 287 287 287 287 287 287 287 287 287 288 289 289 289 289 289 289 288 288 287 287 287 287 287 288 288 288 288 288 288 288 289
286 286 286 286 286 286 286 285 285 285 285 285 285 286 286 286 286 286 286 286 286 286 286 286 287 287 287 287 287 287 287 287 287 286 286 286 285 285 285 284 284 284 284 284 284 285 285 285 286 286 286 286 286 286 286 286 286 286 287 287 287 287 288 288 289 289 289 289 289 288 288 287 287 287 287 287 287 287 288 288 288 288 288 288 288 289
286 286 286 286 286 285 285 285 285 285 285 285 285 285 286 286 286 286 286 286 286 286 286 286 287 287 287 287 287 286 286 286 286 285 285 285 285 284 284 284 284 284 284 284 284 285 285 285 286 286 286 286 286 286 286 286 286 287 287 287 288 288 288 289 289 288 288 288 287 287 287 287 287 287 287 287 287 288 288 288 288 288 288 288 288 289
286 285 285 285 285 285 285 285 285 285 285 285 285 286 286 286 286 286 286 286 286 287 287 287 287 286 286 286 285 285 285 285 285 285 284 284 284 284 284 284 284 284 284 285 285 285 285 285 286 286 286 286 286 286 286 286 286 287 288 288 288 288 288 288 288 287 287 287 287 287 287 287 287 287 287 287 288 288 288 288 288 288 288 288 288 289
285 285 284 284 284 284 285 285 285 285 285 285 286 286 286 286 286 287 287 287 287 286 286 286 286 285 285 285 284 284 284 284 284 284 284 284 284 284 284 284 285 285 285 285 285 285 285 285 286 286 286 286 286 286 286 286 287 287 288 288 288 288 288 288 287 287 287 287 287 287 287 287 287 287 288 288 288 288 288 288 288 288 288 288 288 288
284 284 284 284 284 284 285 285 285 285 285 286 286 286 286 286 286 286 286 286 286 285 285 285 285 285 284 284 284 284 284 284 284 284 284 284 284 284 284 285 285 285 286 286 285 285 285 285 285 285 285 285 285 286 286 287 287 287 288 288 288 288 287 287 287 287 287 287 288 288 288 288 288 288 288 288 288 288 288 288 288 288 288 288 288 288
285 284 284 284 284 285 285 285 285 285 285 285 285 285 285 285 285 285 285 285 285 285 285 284 284 284 284 284 284 284 284 284 284 284 284 284 284 284 284 285 285 286 286 286 285 285 285 285 285 285 285 285 285 286 286 287 287 287 287 287 287 287 287 287 287 287 287 287 288 288 288 288 288 288 288 288 288 288 288 288 288 288 288 288 288 288
285 284 284 284 284 284 284 284 284 284 284 284 284 284 284 284 284 284 284 284 284 284 284 284 284 284 284 284 284 284 284 284 284 284 284 284 284 284 285 286 286 286 286 285 285 284 284 284 284 285 285 286 286 286 286 287 286 286 286 286 286 286 286 286 286 286 287 287 287 287 287 287 287 287 288 288 288 288 288 288 288 288 288 288 288 288
284 284 284 284 284 284 284 284 283 283 283 283 283 283 283 284 284 284 284 284 284 284 284 284 284 284 284 284 284 284 284 284 284 284 284 284 284 285 285 286 286 285 285 285 284 284 284 284 285 285 286 286 286 286 286 286 285 285 285 285 285 285 286 286 286 286 286 286 287 287 287 287 288 288 288 288 288 288 288 288 288 288 288 288 288 288
284 284 284 284 284 283 283 283 283 283 283 283 283 283 283 283 283 283 284 284 284 284 284 284 284 284 284 284 284 284 284 284 284 284 284 285 285 285 285 285 285 285 284 284 284 284 284 284 285 285 285 285 285 285 285 285 285 285 285 285 285 285 286 286 286 286 286 287 287 287 287 288 288 288 289 289 289 289 289 288 288 288 288 288 288 288
284 284 283 283 283 283 283 283 283 283 283 283 283 283 283 283 283 283 283 283 283 283 284 284 284 284 284 284 284 284 284 284 284 284 285 285 285 285 285 285 284 284 284 284 284 284 284 284 284 284 285 285 285 285 284 284 284 285 285 285 285 286 286 286 286 287 287 287 287 288 288 288 289 289 289 289 289 289 289 288 288 288 288 288 288 288
283 283 283 283 283 283 283 283 283 283 283 283 283 283 283 283 283 283 283 283 283 283 283 283 284 284 284 284 284 284 284 284 284 285 285 285 284 284 284 284 284 284 284 284 284 284 284 284 284 284 284 284 284 284 284 284 284 285 285 285 286 286 287 287 287 287 287 287 288 288 288 289 289 289 289 289 289 289 289 289 289 288 288 288 288 289
283 283 283 283 283 283 283 283 283 283 283 283 283 283 283 283 283 283 283 283 283 283 284 284 284 284 284 284 284 284 284 284 284 284 284 284 284 284 284 284 284 284 284 284 284 284 284 284 284 284 284 285 284 284 284 284 285 285 285 286 286 286 287 287 287 287 287 288 288 288 289 289 289 289 289 289 289 289 289 289 289 289 288 288 289 289
283 283 283 283 283 283 283 283 283 283 283 283 283 283 283 283 283 283 283 283 284 284 284 284 284 284 284 284 284 284 284 284 284 284 284 284 284 284 284 284 284 284 284 284 284 284 284 284 285 284 284 284 284 284 285 285 285 285 285 286 286 286 286 286 287 287 287 287 288 288 288 289 289 289 289 289 289 289 289 289 288 288 288 288 288 289
Wind_Speed
19 21 23 24 25 25 25 25 26 28 29 31 31 32 31 31 30 29 29 30 30 30 31 32 32 33 34 35 34 34 33 32 32 31 31 32 34 36 38 38 38 38 37 37 36 35 33 33 32 33 33 34 35 36 36 36 36 36 36 36 36 35 35 34 34 34 34 34 34 35 35 34 32 28 23 21 20 18 18 18 19 20 22 26 29 32
21 23 23 24 25 25 24 25 26 27 28 29 30 31 31 31 30 30 30 30 30 30 30 31 32 33 34 34 34 34 33 32 31 31 31 33 35 37 38 38 38 37 37 36 36 35 34 34 33 33 33 34 35 36 36 36 35 36 36 36 36 36 35 35 34 33 33 33 33 34 35 35 34 32 29 26 23 20 20 20 21 22 23 25 26 29
21 22 23 24 24 23 23 25 26 27 27 28 29 30 30 30 30 30 30 30 30 30 30 31 32 33 34 34 34 33 32 32 31 31 32 34 36 37 38 38 38 37 37 36 36 35 34 34 34 33 33 34 35 36 36 36 35 35 36 36 36 36 35 35 34 33 32 32 32 33 34 36 35 34 32 30 27 24 21 20 20 22 23 24 25 26
20 21 23 24 24 22 22 24 25 26 27 27 28 29 29 28 28 28 29 30 30 30 30 31 32 33 34 34 34 33 32 31 31 32 33 35 37 38 38 38 37 37 36 36 36 35 34 33 33 33 33 33 35 36 36 36 35 35 35 35 35 35 35 34 34 33 32 31 31 31 32 34 36 36 34 32 30 28 25 22 19 18 20 21 22 23
18 19 21 22 22 21 22 24 25 26 27 28 28 28 28 27 27 28 29 30 30 30 30 31 32 33 34 34 33 32 32 31 32 33 34 36 37 38 38 38 37 37 37 36 36 35 34 33 32 32 31 32 34 36 37 36 36 35 35 35 34 34 34 34 33 32 32 31 30 30 30 33 35 37 36 34 32 30 29 27 23 19 17 17 19 21
17 18 19 20 19 19 21 23 24 26 27 28 28 28 27 26 27 28 29 29 29 30 30 31 32 33 34 34 33 32 31 31 32 33 35 37 38 39 38 38 38 37 37 36 36 35 34 33 32 31 31 31 33 35 37 37 37 36 35 34 33 33 33 33 32 32 31 30 30 29 29 31 33 36 36 35 33 32 30 29 28 24 20 16 16 18
17 18 19 19 19 19 19 21 22 24 26 28 28 28 27 27 27 27 28 28 28 29 31 32 33 33 34 33 32 31 30 31 32 34 36 38 39 39 39 38 38 37 37 37 36 35 34 33 32 31 31 31 32 34 36 37 38 37 35 33 32 32 32 31 31 31 30 30 29 29 29 30 31 33 34 35 34 33 32 31 30 28 25 20 16 14
17 18 18 18 18 19 19 20 21 23 25 26 27 27 28 28 28 28 28 28 28 28 30 33 34 34 34 33 31 30 30 30 32 35 37 39 39 39 39 38 38 37 37 37 36 36 35 34 33 32 31 32 33 34 35 37 38 38 35 33 31 30 30 30 30 30 29 29 29 28 29 29 30 32 33 34 34 34 33 33 32 30 28 25 20 15
16 17 17 17 17 18 19 19 21 22 24 24 24 24 25 27 29 30 29 28 27 27 29 32 34 35 35 33 31 29 29 30 32 34 37 39 40 40 39 39 38 38 37 37 37 36 35 34 33 33 32 33 33 34 35 37 38 38 35 32 30 29 29 28 28 29 29 29 29 29 29 30 31 31 32 33 33 33 33 33 33 32 30 28 25 20
15 16 16 16 16 16 17 18 20 22 23 23 22 21 21 24 26 29 30 29 28 28 28 30 31 34 35 33 30 28 28 29 32 34 37 38 39 39 39 39 38 38 38 37 37 36 36 35 35 34 34 34 35 35 35 37 38 37 34 31 29 28 27 27 27 28 28 29 30 31 32 32 33 33 33 33 32 32 32 32 32 32 31 30 28 24
15 15 16 16 16 16 16 17 19 21 22 23 22 21 20 21 23 25 27 28 29 30 30 29 29 30 32 32 29 27 27 29 33 36 37 38 39 39 39 38 38 38 38 38 37 37 37 36 36 35 35 36 36 36 35 36 37 36 33 30 28 27 27 26 26 26 27 28 30 32 33 34 35 35 34 33 32 31 31 31 31 31 30 30 29 27
14 15 15 15 16 17 17 18 19 21 22 22 21 21 21 22 22 22 23 25 27 29 30 30 30 29 29 27 26 26 27 30 33 36 38 39 39 39 39 39 38 38 38 38 38 37 37 37 37 37 37 37 37 36 36 36 37 35 32 29 27 27 26 25 25 26 27 28 29 31 33 34 35 35 35 33 32 31 30 29 29 29 29 29 29 28
14 14 15 15 16 16 17 18 19 20 20 19 19 19 20 22 23 23 22 23 24 26 28 29 30 30 27 23 22 23 26 30 34 36 37 37 37 38 38 38 38 38 38 38 38 37 38 38 38 38 38 38 38 37 37 37 36 35 31 28 27 26 26 25 25 26 27 28 30 32 33 34 35 35 34 33 32 31 29 28 27 27 27 27 27 28
14 14 15 15 15 16 16 17 17 17 17 18 18 19 21 22 23 23 22 23 24 26 26 27 28 28 25 21 19 21 25 31 35 36 36 35 35 35 36 37 37 37 37 37 37 37 37 37 38 38 38 38 38 38 37 38 37 34 31 28 26 25 25 25 26 26 28 29 31 33 34 34 34 34 34 33 31 30 29 27 26 26 25 25 25 26
13 14 14 14 15 15 16 16 17 17 17 18 19 21 22 22 22 22 22 23 24 25 26 27 27 26 22 19 18 21 26 31 34 35 35 34 33 33 34 35 36 36 36 35 35 36 36 36 37 37 38 38 39 38 38 38 37 34 30 27 25 25 25 25 26 27 28 30 32 34 34 34 34 33 33 32 31 30 28 27 26 25 24 24 23 23
12 12 12 13 15 16 16 16 17 18 19 20 20 20 20 21 21 21 21 22 23 23 23 24 25 25 23 21 20 22 27 32 33 33 33 32 32 32 32 32 33 34 35 34 34 34 35 35 36 36 37 38 38 38 38 38 37 34 30 27 25 24 24 24 25 27 29 32 34 34 34 33 32 32 32 31 31 30 28 27 26 25 24 23 22 22
12 11 12 13 15 16 17 18 18 18 19 19 19 19 19 20 21 21 21 21 21 20 20 20 19 19 21 23 23 24 28 31 32 32 31 30 31 31 30 30 31 32 33 33 33 33 33 34 35 36 36 37 38 38 39 39 38 35 30 27 25 24 24 24 26 28 32 34 35 34 33 32 31 31 31 31 30 30 29 28 26 25 24 23 22 22
12 12 12 13 14 16 18 18 18 18 18 18 19 19 20 20 21 20 20 20 19 19 19 18 17 16 17 20 23 27 30 31 30 30 29 29 29 30 29 29 29 30 31 31 31 32 32 32 33 34 35 36 37 38 39 39 38 35 31 28 26 26 26 27 30 33 36 37 36 33 32 31 31 31 31 31 30 30 29 28 27 26 25 24 23 22
13 13 13 14 15 16 18 17 17 17 17 18 19 20 21 21 21 20 19 19 18 18 18 18 18 18 19 21 24 28 31 30 29 28 27 27 28 29 28 28 28 29 30 30 30 31 31 31 32 33 34 35 36 37 38 39 38 35 31 29 28 28 29 32 35 38 40 39 36 33 32 32 32 33 33 32 32 31 29 28 27 26 25 24 24 23
14 15 15 15 15 16 17 17 17 16 17 19 20 21 21 21 20 20 19 19 18 18 19 19 19 19 20 22 25 28 29 28 27 26 26 26 26 27 27 27 27 28 29 30 30 30 30 31 32 33 33 34 35 36 38 38 37 34 32 30 30 31 33 36 39 40 39 38 36 34 33 33 34 34 34 34 33 32 31 29 28 27 26 25 24 23
15 16 16 16 15 15 16 17 18 18 19 20 21 21 21 20 19 19 19 19 19 19 19 18 19 20 21 23 25 26 27 26 25 24 24 25 25 25 25 25 26 28 29 29 30 30 29 31 31 32 32 33 34 35 37 36 35 33 31 31 32 34 37 40 41 41 38 36 35 34 34 35 35 36 36 35 35 34 33 31 29 28 27 26 25 24
16 16 17 16 16 16 17 19 20 20 20 20 20 20 19 19 19 19 20 20 20 19 19 19 20 21 22 23 24 25 24 22 22 22 22 23 24 24 24 25 25 27 27 28 29 30 31 31 31 31 31 32 33 34 35 33 31 30 30 32 34 37 40 42 43 41 38 36 34 34 35 36 37 37 37 37 36 35 34 33 31 30 28 26 26 25
14 15 15 15 16 17 18 19 20 20 19 19 19 19 19 19 19 20 20 20 20 21 21 22 23 23 22 23 23 23 21 20 20 20 19 19 22 24 24 25 25 26 26 27 29 31 32 32 31 31 31 32 33 34 33 30 28 28 29 32 36 39 42 43 43 42 39 37 34 34 34 36 38 39 39 38 37 36 35 34 33 32 30 28 27 26
12 13 14 15 15 16 17 18 19 19 19 19 19 19 20 20 20 21 21 21 22 23 23 23 23 23 22 22 22 21 19 17 17 17 17 18 20 23 23 24 25 25 26 27 28 30 31 32 31 30 30 31 32 32 31 28 26 26 29 32 36 40 42 43 43 42 40 38 36 34 34 36 39 40 41 39 38 36 36 35 35 33 32 30 28 27
13 14 15 15 16 16 17 18 18 19 19 19 19 20 20 21 21 22 22 22 22 22 22 21 21 21 21 21 20 19 17 16 15 16 17 18 21 23 23 22 23 24 26 27 28 29 30 31 30 30 30 31 31 30 28 26 26 27 29 33 36 39 41 42 42 41 40 39 37 36 36 37 39 41 42 41 39 37 36 36 35 35 33 32 30 28
14 15 16 16 16 16 17 17 18 18 18 19 19 20 20 21 21 22 22 21 20 20 19 19 19 19 20 19 18 18 17 16 15 16 17 18 20 22 22 21 21 23 25 27 28 28 29 29 29 29 30 30 29 28 26 26 26 28 31 34 36 38 39 39 40 40 39 39 38 37 37 38 40 42 43 42 41 38 37 37 36 35 34 33 31 30
15 16 16 16 17 17 17 18 18 18 18 18 19 19 19 20 20 21 20 19 19 18 17 16 17 18 18 17 17 17 17 17 16 16 17 18 20 21 21 20 21 22 25 27 28 28 28 28 29 29 29 29 27 26 26 26 28 30 32 34 36 36 37 37 38 38 38 38 37 38 38 39 41 42 44 43 42 40 38 38 37 36 35 33 32 30
17 17 17 18 18 19 19 19 19 19 19 19 18 18 17 18 18 19 19 19 19 18 17 16 16 16 16 16 17 18 18 17 16 16 16 17 18 18 19 21 22 23 25 27 28 27 26 26 26 27 28 27 26 26 27 28 30 32 33 34 35 35 35 36 37 37 37 36 37 38 39 40 42 43 44 44 42 41 39 38 37 36 35 32 30 28
18 19 19 19 20 20 20 20 20 20 20 20 19 18 17 16 17 18 19 19 19 18 17 17 16 16 16 17 19 19 18 16 14 14 15 16 17 18 20 22 22 21 22 25 27 27 25 23 23 24 26 27 27 28 29 30 32 33 33 34 34 34 35 36 36 36 35 35 36 37 40 41 43 43 43 43 43 41 40 39 38 36 34 31 28 26
19 20 21 21 21 21 21 21 21 21 21 21 20 19 17 17 18 19 19 19 18 18 18 17 17 17 17 17 17 16 14 13 12 12 15 17 18 19 21 21 21 20 19 21 22 22 23 24 23 23 24 27 29 30 31 32 33 33 33 33 33 34 35 35 35 34 34 34 35 38 40 42 43 43 43 43 42 41 40 39 38 36 34 31 28 27
20 21 22 23 23 23 22 22 22 22 22 22 21 20 20 19 19 19 19 18 18 18 18 18 18 17 17 15 11 8 11 13 14 14 16 18 19 19 20 20 20 20 19 18 17 15 15 23 25 24 24 27 30 31 32 32 32 32 32 33 33 34 34 33 32 32 32 34 36 39 41 43 44 43 42 42 41 40 40 39 37 36 33 31 29 28
21 22 23 23 24 23 23 23 23 23 23 22 22 22 21 21 20 20 19 18 18 18 19 19 19 18 18 16 12 11 14 17 17 17 17 17 19 19 19 20 21 22 20 20 19 15 10 18 25 28 27 28 29 30 30 30 30 31 31 33 33 33 32 31 30 30 32 34 37 40 42 43 43 43 42 40 40 39 39 38 37 35 33 31 30 29
22 23 23 24 24 24 23 23 23 23 23 23 23 23 22 22 21 20 20 19 18 18 19 19 19 19 19 18 18 18 19 20 19 18 17 17 17 18 20 21 22 23 23 23 23 22 18 21 26 30 30 28 27 27 28 28 29 29 30 31 32 32 30 29 29 30 33 36 38 40 41 42 42 41 40 40 39 38 38 37 36 35 33 31 30 29
22 23 23 24 24 23 23 23 23 23 23 23 23 23 23 22 22 21 21 20 20 19 19 20 20 20 20 19 19 20 21 21 20 19 18 18 18 18 21 22 22 22 23 23 23 24 24 26 28 29 29 29 28 27 26 27 27 28 28 28 28 27 27 28 30 33 36 38 39 39 38 38 39 39 39 40 39 38 38 37 36 35 33 31 29 28
22 23 23 24 24 24 24 24 24 24 24 24 24 24 24 23 23 22 22 22 21 21 21 21 21 21 21 20 20 21 22 23 22 22 20 20 20 19 20 21 21 21 22 23 23 23 24 27 28 28 28 29 29 28 26 25 26 26 26 24 23 24 27 30 34 37 39 39 38 37 35 35 35 36 37 38 38 38 38 37 36 34 32 30 28 27
22 23 23 23 23 24 24 24 24 25 25 25 24 24 24 23 23 23 23 23 23 23 23 23 24 24 24 24 24 24 25 26 26 25 23 23 22 21 21 21 21 22 23 24 25 25 25 28 29 29 28 27 27 27 26 25 24 24 23 22 23 26 30 33 35 37 37 36 35 34 33 32 33 33 34 35 36 37 37 36 35 34 32 30 28 27
22 22 23 23 23 23 24 24 25 25 25 25 25 24 23 23 23 23 24 24 25 25 26 26 27 27 27 27 27 28 28 29 29 28 27 26 25 24 24 23 24 24 24 26 27 27 26 27 27 27 25 24 23 24 25 25 25 24 23 23 25 28 29 30 31 32 33 33 33 32 31 31 31 31 33 34 35 36 36 35 34 33 32 31 30 29
21 22 23 23 23 23 24 24 24 24 25 24 24 24 23 24 24 25 26 26 27 28 28 28 28 28 28 28 28 29 29 30 30 29 29 28 28 27 27 26 27 28 27 26 26 25 24 23 21 20 21 22 23 24 25 25 25 24 24 25 25 26 27 26 27 27 29 30 31 32 33 32 32 33 33 34 33 33 32 32 32 32 32 32 32 31
21 22 22 23 23 23 23 23 24 24 24 24 24 24 25 26 26 27 28 28 28 28 28 28 28 28 28 28 29 29 29 30 30 30 30 30 30 29 29 29 28 28 27 25 24 23 21 20 18 18 19 21 23 24 24 24 24 24 25 25 25 25 23 22 23 24 26 28 31 34 36 36 35 35 33 32 30 29 28 28 29 30 31 31 32 31
21 22 22 23 23 23 23 23 24 24 24 25 26 27 27 28 29 29 29 28 28 27 27 27 27 28 28 29 29 30 31 31 32 32 32 32 31 31 30 28 28 27 26 25 23 21 20 20 21 21 22 22 23 24 25 25 24 24 25 25 25 23 21 21 22 25 26 28 31 34 35 35 35 33 31 28 27 26 26 26 27 28 28 28 28 29
22 23 24 24 24 23 23 24 25 25 26 27 28 29 28 28 27 27 27 26 25 25 25 25 26 27 28 30 30 31 32 32 33 33 32 32 31 30 29 28 28 27 26 25 25 24 22 22 22 23 23 23 24 25 26 26 25 23 23 23 23 23 23 24 24 25 26 27 29 31 31 32 31 30 29 28 27 26 26 26 26 27 27 26 25 25
23 24 24 25 25 25 26 26 27 27 27 27 27 26 26 25 24 23 23 23 24 24 25 25 26 27 28 30 30 31 31 32 32 32 31 31 30 29 28 28 27 27 27 26 25 24 22 22 22 22 23 23 23 24 25 25 24 23 23 23 24 25 26 26 24 23 24 26 27 28 27 28 28 28 28 28 28 27 27 27 27 27 26 25 24 24
25 26 26 26 26 26 26 26 25 25 24 23 23 23 23 22 22 22 22 23 24 24 25 25 25 25 26 27 28 29 30 32 32 31 30 30 29 29 28 28 27 26 25 25 24 23 21 21 22 24 24 24 25 25 25 24 23 22 22 22 22 22 22 24 25 24 25 26 26 25 25 26 26 26 27 28 28 28 28 28 27 26 25 25 25 25
27 28 27 27 26 25 24 23 23 22 22 22 22 23 23 23 23 23 23 23 23 23 23 23 23 23 24 25 26 27 28 30 30 30 30 30 29 29 27 27 25 23 22 22 22 21 22 23 24 26 26 25 25 24 24 22 21 21 22 23 23 23 24 26 26 26 26 26 25 24 25 26 26 27 28 28 28 28 28 29 29 28 26 26 26 25
27 27 26 25 25 24 23 23 23 23 23 23 24 24 24 24 23 23 23 23 23 23 22 22 21 22 23 24 25 26 27 29 29 30 30 30 29 28 26 25 23 22 21 22 23 24 24 24 25 26 25 24 23 22 21 21 23 25 26 26 26 26 27 27 26 25 26 26 26 26 26 27 27 27 27 27 27 27 28 28 28 28 27 26 26 26
26 26 26 26 25 25 25 25 25 24 24 24 24 24 24 24 23 23 23 23 23 23 23 22 21 21 22 24 24 25 26 27 28 28 28 28 27 26 25 24 23 23 23 25 26 27 27 26 27 26 24 23 22 23 24 24 26 27 28 27 26 26 26 26 25 25 25 26 27 27 27 27 27 27 26 26 27 27 27 27 26 26 28 28 28 28
27 27 27 26 26 26 26 26 25 25 25 25 24 24 24 24 24 23 24 24 24 24 23 23 21 21 22 24 24 24 24 25 26 27 27 27 27 26 25 25 25 26 26 27 28 28 28 28 29 28 26 25 24 25 27 27 27 27 27 26 25 25 25 25 25 25 25 26 27 27 27 26 26 25 25 25 26 27 27 26 26 27 28 29 30 30
27 27 27 27 27 26 26 26 25 25 25 25 25 25 26 26 25 25 25 25 24 23 23 23 22 22 23 24 24 24 24 25 26 26 26 26 27 26 26 26 26 27 27 28 28 28 29 29 30 30 29 27 26 26 27 27 26 26 26 25 24 24 24 25 26 26 27 27 28 28 27 26 25 25 25 25 26 26 26 26 26 28 29 30 31 31
27 27 27 27 27 26 26 26 26 25 25 25 25 25 25 25 24 24 24 24 23 22 22 22 22 23 23 24 24 24 25 25 25 25 25 26 26 27 26 26 26 27 27 27 27 27 28 28 29 29 28 28 27 27 27 27 26 26 26 25 24 24 24 25 26 27 27 28 28 28 27 27 26 26 26 25 25 26 25 25 26 28 29 30 31 31
27 27 27 26 26 26 26 25 25 24 24 24 24 24 24 24 23 23 23 23 22 21 21 21 22 22 23 24 25 25 24 25 25 26 26 26 26 26 26 25 25 25 25 25 24 24 24 25 26 26 25 25 26 27 27 26 26 25 25 25 24 24 24 25 27 27 27 27 26 26 26 26 26 26 25 23 23 23 23 23 25 27 28 29 30 31
26 27 26 26 26 26 26 25 24 24 24 23 23 24 24 24 24 23 23 22 22 21 22 22 22 22 23 24 25 25 25 25 25 26 27 27 27 26 26 25 24 22 22 22 21 21 20 20 20 22 24 24 23 24 25 25 24 24 24 25 25 25 25 26 27 27 26 26 25 24 23 24 24 23 22 21 20 21 22 23 25 28 29 29 30 32
Wind_Direction
334 336 341 343 345 346 349 352 353 352 351 351 352 353 353 355 356 357 358 359 359 360 1 1 2 3 5 6 7 8 9 9 10 9 6 4 3 2 3 3 5 6 8 10 12 13 13 13 12 11 10 9 9 9 9 9 9 8 7 6 5 4 3 3 2 2 3 3 4 5 5 7 7 4 353 344 332 316 304 293 284 277 270 265 261 258
334 337 340 343 345 345 346 349 351 351 350 349 349 351 352 353 354 355 356 357 358 359 359 360 1 2 3 5 6 7 8 8 8 7 5 3 1 1 1 2 3 5 6 8 10 11 11 11 11 10 8 7 7 8 8 9 9 8 8 7 6 5 4 3 3 3 3 4 4 3 3 3 5 6 3 358 347 330 314 300 289 280 275 271 268 266
335 337 339 341 343 344 344 345 348 349 348 347 348 349 351 352 353 353 354 355 356 357 358 359 359 0 2 3 5 6 6 6 6 5 3 1 -0 360 0 1 2 3 5 6 8 9 9 10 9 8 7 6 5 6 7 8 8 8 7 7 6 5 4 3 3 3 4 5 5 4 2 1 1 3 4 4 0 351 336 319 301 287 278 273 270 269
335 337 338 340 341 342 342 343 345 346 347 346 347 349 351 351 351 352 352 353 354 355 356 357 358 359 0 2 3 4 5 5 4 2 1 359 359 359 359 -0 1 2 3 5 6 7 7 8 8 7 5 4 3 4 5 6 7 7 7 6 5 4 4 3 3 3 4 5 6 6 3 0 360 0 1 2 3 2 357 346 329 306 287 277 272 270
334 336 337 339 339 339 340 342 344 345 345 346 347 349 350 350 350 350 351 352 353 354 354 355 356 357 359 1 2 3 3 2 1 360 358 357 357 357 358 359 0 1 2 3 4 5 6 6 6 5 4 2 1 2 3 5 6 7 6 6 5 4 4 4 4 4 4 5 6 6 4 1 360 359 359 360 0 1 1 359 351 336 313 291 278 271
332 335 337 339 338 337 338 340 343 345 345 345 346 348 349 349 349 349 350 351 352 352 352 352 353 355 357 359 1 1 1 0 359 357 356 356 356 356 357 358 359 -0 1 2 2 3 4 4 4 3 2 1 360 0 1 3 5 6 6 5 4 4 4 4 5 5 5 5 5 5 4 2 1 360 359 359 359 359 359 359 358 353 342 321 294 277
332 335 338 340 339 338 338 340 343 346 346 345 345 346 347 348 348 348 348 349 350 350 350 350 351 353 356 358 359 360 359 358 356 355 354 354 354 355 356 357 358 359 359 360 1 1 2 2 2 1 0 359 359 359 -0 2 4 5 6 5 4 3 3 4 6 7 7 7 6 6 5 4 2 1 360 360 359 359 358 358 358 357 354 345 326 298
335 337 340 342 341 339 338 340 343 346 347 346 345 345 345 346 346 346 347 348 349 349 348 348 348 350 353 356 358 358 357 355 354 352 352 352 352 353 354 355 356 357 358 358 359 359 -0 -0 360 359 358 358 358 358 359 0 3 5 6 5 4 2 2 4 6 8 9 8 8 7 7 6 4 2 1 1 1 359 358 357 357 357 356 354 347 330
340 340 341 343 342 340 338 338 341 345 347 347 346 345 344 344 344 344 345 346 347 347 347 346 346 347 350 353 356 356 354 352 351 350 350 350 350 351 352 353 354 355 356 356 357 357 358 358 357 357 356 357 357 358 358 359 1 4 5 5 3 1 1 2 4 6 7 7 6 5 4 3 2 1 1 1 1 360 358 357 356 355 355 355 354 347
341 342 341 340 340 339 337 334 337 342 346 346 346 346 346 346 344 343 342 342 343 344 345 345 344 344 346 350 353 353 351 348 347 347 347 348 348 349 350 351 352 353 353 354 354 355 356 356 355 355 354 355 356 357 357 358 360 2 4 3 1 0 360 0 1 3 3 3 1 360 358 357 357 357 357 358 358 358 357 356 355 354 354 354 354 352
340 340 339 338 337 337 336 334 335 339 343 344 346 347 348 348 347 343 340 338 338 340 341 341 341 342 343 347 349 349 346 344 343 344 345 345 346 347 348 349 350 350 351 351 352 353 353 353 353 353 353 354 355 356 356 356 358 0 2 1 360 358 358 358 359 360 360 358 357 355 354 352 352 352 352 353 354 355 355 355 354 353 353 352 352 352
338 338 336 334 333 334 334 335 336 339 342 344 346 345 344 345 345 342 338 334 334 335 337 337 337 339 342 344 345 344 342 341 341 342 343 343 344 346 347 347 347 348 348 349 349 350 351 351 351 351 351 352 353 354 354 354 356 358 360 359 357 356 356 357 358 358 358 356 354 352 351 349 348 348 348 349 350 351 352 352 352 352 351 351 350 350
335 335 333 331 330 331 333 334 336 338 341 343 343 339 335 336 338 338 335 332 331 332 333 333 333 335 339 343 343 341 338 338 338 340 341 342 343 344 345 345 345 346 346 347 347 348 349 349 349 349 349 350 351 352 352 352 354 356 358 357 355 354 354 355 356 357 356 355 353 351 348 347 346 345 345 345 346 347 349 350 350 350 350 349 348 348
332 332 330 329 328 328 330 332 333 333 334 335 334 331 329 331 333 334 333 331 330 331 332 331 330 331 336 340 341 338 336 336 337 338 339 339 340 342 343 343 342 343 344 345 345 346 347 347 347 347 347 348 349 349 349 350 352 354 356 355 353 352 351 352 354 355 354 353 351 349 347 345 343 343 342 343 344 345 346 347 348 348 348 347 347 345
327 328 326 324 322 323 324 326 327 326 325 326 327 328 329 329 331 332 332 330 329 330 331 331 330 330 332 335 336 336 335 336 337 337 336 335 336 338 340 340 340 340 342 342 343 343 344 345 345 345 345 345 346 346 346 347 350 352 354 353 351 350 349 349 350 350 350 349 347 346 345 343 342 341 341 341 342 342 343 344 345 346 346 345 344 343
321 321 319 317 316 316 318 320 320 319 319 322 324 327 327 327 328 329 329 327 327 329 331 332 331 329 328 329 331 333 335 336 336 334 332 331 332 334 337 338 338 337 338 339 340 341 342 343 343 343 343 343 343 343 344 345 347 350 351 351 349 347 345 345 345 345 344 344 344 343 343 343 342 341 341 340 340 340 341 341 342 343 343 343 342 340
315 314 312 311 310 311 313 315 315 316 317 320 322 323 323 323 323 323 324 324 325 327 328 330 329 327 324 324 325 329 333 335 334 331 328 326 327 330 334 335 335 335 335 336 337 338 340 340 341 341 341 341 341 341 342 343 345 347 348 348 346 343 341 341 340 340 340 341 342 343 343 343 343 342 341 341 340 339 339 339 339 340 341 341 340 339
307 307 307 306 305 307 310 312 312 314 316 318 319 320 319 318 318 319 319 320 321 322 322 323 321 319 317 317 318 323 328 331 330 327 324 322 323 326 330 332 333 332 332 332 334 335 337 338 338 339 339 338 339 339 340 341 343 344 344 343 341 339 337 336 336 337 338 340 343 345 345 345 344 343 342 341 340 339 338 337 336 336 337 337 337 337
301 301 301 301 302 304 306 307 308 311 313 315 316 317 316 315 316 316 316 316 315 315 315 314 312 310 308 307 310 317 323 327 326 324 320 318 318 322 326 330 330 329 329 329 330 332 333 334 335 336 336 336 336 337 338 339 340 341 341 339 337 335 334 334 335 336 339 342 345 347 348 347 346 344 343 342 341 339 338 336 334 333 333 333 333 333
297 296 296 297 300 302 303 303 304 306 309 312 313 313 312 313 313 313 313 313 312 311 310 308 306 304 304 304 307 313 319 323 323 320 316 314 314 317 323 327 328 327 325 325 327 329 330 331 332 333 333 334 334 335 336 337 338 338 337 335 332 331 331 332 334 337 339 342 344 346 347 347 346 345 343 342 341 340 338 337 334 332 330 329 328 328
293 293 293 295 298 298 298 298 301 304 308 312 313 311 309 310 311 311 311 312 311 310 309 304 302 302 304 303 305 309 316 319 318 316 314 312 311 314 320 325 326 324 322 322 323 326 328 329 329 330 331 331 331 332 334 335 336 336 334 332 330 329 330 332 334 336 338 339 341 343 345 346 345 345 343 342 340 339 338 337 335 332 329 326 324 323
289 291 293 295 296 296 296 298 301 305 309 313 312 309 307 308 308 308 310 310 309 307 305 302 300 300 301 300 302 306 312 314 313 311 311 309 308 310 317 322 323 321 318 319 321 323 325 326 327 327 327 327 328 330 332 334 334 333 331 329 328 328 329 331 333 335 336 337 338 339 341 342 343 343 343 341 340 339 338 337 336 333 330 326 322 319
287 291 294 296 297 297 298 300 302 305 308 311 310 308 306 305 304 305 305 305 304 302 301 299 299 299 299 299 301 305 309 310 310 309 308 304 304 307 314 320 320 317 314 315 318 321 323 323 323 323 324 324 325 328 330 332 332 330 328 327 326 327 329 331 332 334 335 335 335 336 337 339 340 341 342 341 339 338 337 336 335 334 331 328 323 319
294 296 299 300 300 301 301 302 303 305 306 307 306 305 305 304 303 303 302 301 301 300 300 301 301 301 301 301 302 304 306 309 310 309 306 301 300 304 310 316 316 314 311 313 316 319 320 320 320 320 320 321 323 326 329 330 329 326 324 324 325 326 328 330 331 332 333 333 333 333 333 335 337 339 340 340 339 337 336 335 334 333 332 329 325 321
302 303 304 304 304 304 303 302 301 301 301 300 299 299 300 301 302 301 301 300 301 302 304 305 304 303 303 305 305 305 307 309 310 308 305 301 299 301 306 311 312 310 309 312 315 317 318 316 316 316 317 319 322 325 327 327 325 323 322 322 324 325 327 329 330 330 330 330 330 331 331 332 334 336 337 338 338 337 335 335 334 333 332 330 327 324
304 304 305 305 303 301 299 297 296 294 294 294 296 298 300 302 302 302 302 303 305 307 309 309 306 304 305 306 305 305 307 309 309 307 304 300 298 300 304 308 309 308 309 311 313 315 315 313 313 313 315 318 321 324 325 324 322 321 320 321 322 324 326 327 328 328 327 327 328 328 329 330 331 333 334 336 336 336 335 334 333 333 332 330 328 326
302 303 303 303 302 301 300 298 297 297 297 297 298 300 302 303 304 303 303 305 308 311 311 309 306 305 306 306 304 304 307 308 307 305 303 299 297 298 303 308 310 309 309 310 311 312 311 310 310 312 314 318 321 323 322 321 320 319 319 319 321 322 324 324 325 324 324 324 325 326 327 328 329 330 331 333 334 335 335 334 333 332 331 330 329 327
302 303 303 304 304 304 304 304 303 303 302 302 302 302 301 301 300 299 299 303 307 308 306 303 302 303 304 304 303 304 305 305 304 305 306 302 298 298 304 309 310 310 310 310 309 310 309 308 310 312 315 318 319 319 319 318 317 316 317 318 319 320 321 321 321 321 321 321 322 323 325 326 327 328 329 330 332 333 334 334 333 332 331 330 328 326
303 304 305 306 306 307 307 306 305 305 304 304 303 302 299 296 293 292 295 301 303 302 300 298 297 298 300 302 303 303 303 302 305 310 312 309 303 301 306 309 310 311 312 312 311 311 309 308 310 313 314 316 316 315 315 314 314 314 315 316 317 318 318 319 318 318 317 317 319 321 323 324 325 325 326 328 329 331 332 333 332 331 330 328 326 323
305 306 306 307 307 307 307 306 305 305 304 304 303 300 297 293 291 291 294 298 298 295 294 294 294 296 299 303 305 305 302 302 308 315 317 313 307 304 308 308 308 311 316 317 315 312 309 308 309 310 311 312 312 311 311 312 312 313 313 314 314 315 315 315 315 314 313 315 317 319 321 322 323 323 324 325 327 329 331 332 331 330 328 327 324 321
306 306 306 306 307 307 306 305 304 304 303 303 302 300 298 296 294 294 295 295 293 291 289 290 291 293 296 300 303 302 299 301 306 313 316 310 304 303 307 307 307 310 315 317 316 312 309 308 307 308 309 309 308 308 309 309 310 311 311 312 312 312 312 312 311 310 311 313 316 318 319 320 320 320 321 322 324 326 328 329 330 329 327 325 323 320
305 304 304 305 305 305 304 303 302 301 301 301 300 300 300 299 298 297 296 295 293 290 288 287 288 289 290 289 286 285 291 296 301 307 311 307 302 301 304 304 304 306 309 309 306 303 304 305 306 307 308 307 307 307 307 308 308 309 310 310 309 309 308 308 307 308 310 313 315 316 317 317 317 318 319 320 322 323 325 327 327 327 325 323 321 318
301 301 301 302 302 301 301 300 299 299 298 298 298 299 299 299 299 298 298 296 294 291 288 286 286 287 288 286 284 284 287 291 296 302 305 304 302 301 302 301 302 303 304 303 300 298 295 297 302 305 306 305 304 304 305 305 306 307 308 308 307 306 305 305 306 308 311 313 314 314 314 314 315 316 317 318 320 321 322 324 325 324 323 321 319 317
298 298 299 299 299 298 297 297 296 296 296 296 296 297 298 298 299 299 299 298 297 294 291 288 285 285 287 287 286 286 287 289 293 297 299 300 300 299 299 299 299 301 303 302 301 299 296 296 298 302 303 303 302 302 302 303 304 305 306 304 303 302 303 304 306 308 310 311 311 311 311 311 312 314 316 317 318 319 320 321 321 322 321 319 317 316
296 297 297 297 297 296 295 295 294 294 294 294 295 296 297 298 299 300 300 300 299 298 295 292 289 286 284 283 284 285 286 289 293 296 296 295 295 296 296 296 297 300 301 300 300 301 299 297 297 299 301 301 301 300 300 301 302 303 302 300 299 300 301 303 305 306 307 308 308 308 308 309 310 312 314 315 316 317 317 318 318 319 319 318 316 314
295 295 294 294 294 294 294 293 293 294 294 294 295 296 297 299 300 301 301 301 301 300 299 297 295 292 288 284 282 281 284 289 293 294 294 292 292 293 293 292 295 297 298 297 298 298 298 297 297 297 298 298 299 300 301 301 302 301 299 299 300 300 301 302 303 305 306 306 306 305 306 307 308 310 311 312 313 314 314 315 316 317 318 317 315 313
292 292 292 291 291 291 291 292 292 293 293 294 296 298 299 299 300 300 300 300 300 300 299 298 297 296 294 291 288 287 288 291 293 293 292 292 292 291 290 290 291 293 293 294 294 295 295 295 296 297 296 295 296 298 301 303 302 300 297 298 299 299 299 300 302 304 305 305 305 305 305 306 307 307 308 309 310 312 313 313 314 316 317 316 315 314
289 288 289 289 289 289 289 290 290 291 293 294 296 298 299 299 298 298 298 298 298 298 298 298 297 296 295 294 293 292 292 292 292 293 293 293 293 292 290 289 290 291 290 289 290 291 291 292 293 295 295 294 294 296 299 302 302 299 297 297 297 296 296 298 301 303 303 303 303 303 303 304 305 306 306 308 309 310 311 311 313 314 315 316 315 314
284 284 285 286 286 286 287 287 288 291 292 294 295 296 296 296 296 296 296 296 297 297 297 296 296 295 295 295 295 294 293 293 293 293 293 293 293 292 291 290 289 289 289 287 286 285 285 285 286 288 292 294 295 296 297 298 298 298 298 299 297 295 294 296 298 299 299 299 300 300 301 303 304 305 306 307 308 308 307 308 309 311 313 314 315 314
281 282 283 283 284 284 284 285 287 290 291 292 293 294 294 294 294 294 294 295 296 296 296 296 295 295 295 295 295 294 293 293 293 293 293 293 293 293 293 290 288 288 288 287 285 282 280 279 281 283 286 289 293 295 296 296 295 296 298 298 297 296 295 296 295 294 294 294 295 296 299 301 303 304 304 305 304 303 303 304 305 307 309 310 311 311
280 281 281 282 283 283 283 284 286 288 290 291 292 292 292 292 293 294 295 295 295 295 295 296 296 296 295 295 294 293 293 292 292 292 293 294 295 297 296 293 291 290 290 288 284 281 278 278 279 281 284 287 290 292 293 292 292 292 292 292 293 294 296 295 294 293 293 292 292 294 296 298 299 300 301 301 301 300 300 301 301 302 303 304 304 305
280 280 280 280 281 281 283 285 287 288 290 291 290 290 290 291 291 292 293 294 294 294 295 296 296 297 297 296 295 294 293 293 293 294 295 297 298 299 299 297 295 293 291 287 282 278 276 276 278 281 283 287 289 289 288 288 288 288 290 289 292 295 297 295 294 294 293 292 291 292 293 294 294 295 297 298 299 299 300 299 299 298 299 299 298 298
278 278 279 280 281 283 285 287 288 289 290 289 288 287 288 288 289 289 290 291 292 292 293 294 295 296 296 296 296 295 295 295 296 296 297 297 298 298 298 297 296 294 290 284 280 278 278 279 280 282 283 285 285 283 282 284 286 287 287 289 293 297 297 296 296 296 294 292 291 291 291 290 291 292 294 295 296 297 298 298 297 297 296 295 295 295
278 279 280 281 283 284 285 285 286 286 286 285 285 284 285 285 286 287 287 288 288 289 291 292 293 294 292 291 292 294 294 294 295 295 294 294 295 296 296 296 295 292 287 283 280 281 285 285 284 284 285 282 279 278 279 283 287 289 290 291 292 291 290 292 294 295 294 291 290 289 288 288 289 290 291 291 292 294 296 297 297 297 297 296 295 293
277 278 279 279 280 281 281 281 281 283 283 283 282 283 283 284 284 285 285 285 286 287 288 289 290 290 288 287 288 290 291 291 292 292 292 293 294 294 294 293 290 287 285 285 285 285 286 285 286 286 286 282 279 277 280 285 289 290 289 290 290 288 287 288 290 291 290 290 289 287 287 287 288 288 287 288 289 291 292 294 295 296 298 298 297 295
274 274 275 276 276 277 277 278 280 281 281 281 281 282 282 283 283 283 283 283 284 284 285 285 285 283 282 283 285 286 287 288 289 290 291 292 292 292 290 287 284 283 285 287 288 288 286 284 284 285 285 284 282 281 282 285 286 287 287 288 289 288 287 286 286 286 286 286 286 286 286 286 285 283 281 283 286 288 288 289 291 293 296 297 297 296
270 271 271 273 274 275 276 277 278 279 279 279 280 281 281 282 282 282 281 281 281 282 283 282 280 277 277 279 281 282 282 284 285 287 288 289 289 288 286 284 283 284 285 286 287 286 285 283 282 281 281 282 282 282 281 282 282 282 284 285 286 286 285 284 285 285 285 283 283 284 285 284 281 278 277 278 281 284 284 285 287 291 293 295 296 295
268 269 269 270 272 272 273 274 275 276 276 277 278 279 280 280 281 281 280 280 280 280 280 279 277 275 275 276 277 278 279 280 281 283 284 285 285 285 284 284 285 286 286 286 286 285 284 282 280 278 275 274 274 276 278 279 279 279 281 282 282 281 280 282 283 284 283 282 282 282 282 280 277 275 276 277 278 279 280 281 285 288 291 294 294 294
267 267 267 268 269 270 271 272 273 273 273 275 277 278 280 281 281 280 279 279 278 276 274 274 274 274 275 275 275 276 277 277 278 279 280 281 282 283 284 285 286 287 288 288 287 287 286 285 282 278 274 270 267 268 272 274 276 276 277 277 277 276 277 279 281 281 281 282 282 282 282 279 276 275 276 275 276 277 277 279 283 287 290 293 294 292
265 265 266 266 267 267 269 270 270 271 272 274 276 278 281 282 281 279 278 277 275 272 269 269 270 271 272 274 274 275 275 276 277 278 279 279 280 281 282 282 284 285 287 288 288 288 288 287 284 281 277 271 267 266 267 270 273 274 274 274 274 274 275 276 278 279 280 281 282 282 281 279 278 277 277 276 276 277 279 281 284 287 290 292 292 291
264 264 264 264 264 265 266 267 267 268 270 272 275 278 280 281 281 280 278 275 272 270 269 269 268 267 269 272 273 274 274 275 276 277 278 279 279 279 278 278 278 280 282 284 285 286 287 287 286 284 280 274 270 268 267 268 271 274 274 274 274 275 275 276 277 279 280 281 282 282 282 283 283 283 282 281 282 284 286 286 287 289 290 290 290 289